FRS93 LOWL-LOLH

Flight info

Callsign FRS93
Flight time 0h -6m
Altitude 2500
Route OSKAR
Aircraft K100/L-SBDGRY/S

Departure

Time 2026-05-05 19:42
Airport Linz-Hörsching Airport (LOWL)

Arrival

Time 2026-05-05 19:35
Airport Hofkirchen Airfield (LOLH)
Time Latitude Longitude Altitude Speed Heading
2026-05-05 19:35 48.23867 14.18890 971 ft 0 kts 87°
2026-05-05 19:39 48.23855 14.18919 976 ft 8 kts 140°
2026-05-05 19:39 48.23791 14.18947 978 ft 11 kts 158°
2026-05-05 19:39 48.23768 14.19053 975 ft 14 kts 93°
2026-05-05 19:39 48.23764 14.19228 974 ft 20 kts 83°
2026-05-05 19:40 48.23764 14.19456 972 ft 25 kts 94°
2026-05-05 19:40 48.23669 14.19647 969 ft 28 kts 162°
2026-05-05 19:40 48.23479 14.19752 971 ft 30 kts 158°
2026-05-05 19:40 48.23354 14.19681 975 ft 15 kts 265°
2026-05-05 19:41 48.23353 14.19665 975 ft 0 kts 267°
2026-05-05 19:41 48.23353 14.19663 975 ft 6 kts 270°
2026-05-05 19:41 48.23335 14.19172 998 ft 78 kts 268°
2026-05-05 19:41 48.23283 14.18219 1135 ft 102 kts 270°
2026-05-05 19:42 48.23099 14.17258 1578 ft 79 kts 227°
2026-05-05 19:42 48.22555 14.17489 1705 ft 109 kts 151°
2026-05-05 19:42 48.21986 14.18147 2029 ft 101 kts 144°
2026-05-05 19:42 48.21500 14.19013 2190 ft 112 kts 136°
2026-05-05 19:43 48.20991 14.19996 2178 ft 136 kts 116°
2026-05-05 19:43 48.20572 14.21299 2181 ft 144 kts 130°
2026-05-05 19:43 48.19934 14.22507 2177 ft 150 kts 127°
2026-05-05 19:43 48.19286 14.23760 2187 ft 154 kts 129°
2026-05-05 19:44 48.18629 14.25047 2179 ft 155 kts 128°
2026-05-05 19:44 48.17969 14.26311 2181 ft 154 kts 128°
2026-05-05 19:44 48.17313 14.27582 2183 ft 154 kts 128°
2026-05-05 19:44 48.16663 14.28846 2183 ft 152 kts 128°
2026-05-05 19:45 48.16018 14.30100 2183 ft 152 kts 128°
2026-05-05 19:45 48.15371 14.31364 2185 ft 152 kts 130°
2026-05-05 19:45 48.14482 14.32067 2178 ft 146 kts 179°
2026-05-05 19:45 48.13604 14.31502 2179 ft 143 kts 230°
2026-05-05 19:46 48.13379 14.30102 2184 ft 144 kts 276°
2026-05-05 19:46 48.13332 14.28615 2184 ft 143 kts 262°
2026-05-05 19:46 48.13186 14.27155 2190 ft 140 kts 263°
2026-05-05 19:46 48.13042 14.25719 2185 ft 137 kts 262°
2026-05-05 19:47 48.12899 14.24290 2174 ft 143 kts 262°
2026-05-05 19:47 48.12734 14.22747 2183 ft 158 kts 261°
2026-05-05 19:47 48.12235 14.21268 2178 ft 168 kts 220°
2026-05-05 19:47 48.11108 14.20751 2190 ft 180 kts 177°
2026-05-05 19:48 48.09916 14.21284 2198 ft 185 kts 152°
2026-05-05 19:48 48.09045 14.22654 2195 ft 178 kts 118°
2026-05-05 19:48 48.08543 14.24274 2196 ft 168 kts 104°
2026-05-05 19:48 48.08543 14.26001 2256 ft 162 kts 82°
2026-05-05 19:49 48.08754 14.27519 2600 ft 140 kts 71°
2026-05-05 19:49 48.09225 14.28816 2569 ft 150 kts 46°
2026-05-05 19:49 48.10148 14.29707 2293 ft 166 kts 15°
2026-05-05 19:49 48.11195 14.29450 2359 ft 147 kts 309°
2026-05-05 19:50 48.11143 14.28200 2502 ft 143 kts 219°
2026-05-05 19:50 48.10037 14.28192 1397 ft 198 kts 146°
2026-05-05 19:50 48.09194 14.28943 2363 ft 122 kts 169°
2026-05-05 19:50 48.08336 14.28606 2239 ft 140 kts 221°
2026-05-05 19:51 48.07637 14.27561 2242 ft 142 kts 213°
2026-05-05 19:51 48.06810 14.27592 2607 ft 131 kts 126°
2026-05-05 19:51 48.06493 14.28957 2514 ft 149 kts 126°
2026-05-05 19:51 48.05728 14.29893 2786 ft 123 kts 111°
2026-05-05 19:52 48.05968 14.31145 2790 ft 144 kts 55°
2026-05-05 19:52 48.06559 14.32450 2721 ft 153 kts 52°
2026-05-05 19:52 48.07162 14.33748 2597 ft 162 kts 54°
2026-05-05 19:52 48.07667 14.34913 3244 ft 108 kts 35°
2026-05-05 19:53 48.08448 14.34593 2808 ft 147 kts 310°
2026-05-05 19:53 48.09033 14.33273 2302 ft 157 kts 301°
2026-05-05 19:53 48.09548 14.31905 1995 ft 145 kts 296°
2026-05-05 19:53 48.10186 14.31079 2035 ft 112 kts 356°
2026-05-05 19:54 48.10803 14.31694 1918 ft 116 kts 65°
2026-05-05 19:54 48.11007 14.32879 1879 ft 124 kts 81°
2026-05-05 19:54 48.11124 14.34152 1881 ft 124 kts 83°
2026-05-05 19:54 48.11172 14.35452 1884 ft 123 kts 89°
2026-05-05 19:55 48.11171 14.36708 1900 ft 124 kts 92°
2026-05-05 19:55 48.11092 14.38007 1872 ft 125 kts 99°
2026-05-05 19:55 48.10985 14.39326 1820 ft 128 kts 96°
2026-05-05 19:55 48.11062 14.40551 1996 ft 111 kts 45°
2026-05-05 19:56 48.11798 14.40812 1912 ft 119 kts 348°
2026-05-05 19:56 48.12605 14.40550 1889 ft 121 kts 343°
2026-05-05 19:56 48.13421 14.40206 1887 ft 120 kts 341°
2026-05-05 19:56 48.14159 14.39682 1919 ft 111 kts 319°
2026-05-05 19:57 48.14284 14.38671 1741 ft 118 kts 244°
2026-05-05 19:57 48.14217 14.37521 1648 ft 116 kts 288°
2026-05-05 19:57 48.14234 14.36439 1608 ft 93 kts 259°
2026-05-05 19:57 48.14108 14.35558 1471 ft 79 kts 266°
2026-05-05 19:58 48.14034 14.34766 1330 ft 70 kts 262°
2026-05-05 19:58 48.13953 14.34006 1219 ft 75 kts 261°
2026-05-05 19:58 48.13896 14.33466 1182 ft 20 kts 259°
2026-05-05 19:58 48.13892 14.33351 1182 ft 8 kts 320°
2026-05-05 19:59 48.13943 14.33325 1181 ft 6 kts 295°
2026-05-05 19:59 48.13939 14.33309 1181 ft 0 kts 208°